Bloomington, IN

4:40 AM EDT on April 23, 2018 (GMT -0400)
Monroe County

Weather History for KBMG - December, 2013

Change the Weather History Date:

Sunday, December 29, 2013

  Actual Average Record
Temperature  
Mean Temperature 36 °F 30 °F  
Max Temperature 45 °F 38 °F 59 °F (2006)
Min Temperature 27 °F 21 °F 12 °F (2000)
Degree Days  
Heating Degree Days 29 35  
Month to date heating degree days 933 946  
Since 1 July heating degree days 2073 2002  
Cooling Degree Days 0 0  
Month to date cooling degree days 0 0  
Year to date cooling degree days 1006 927  
Moisture  
Dew Point 30 °F    
Average Humidity 76    
Maximum Humidity 92    
Minimum Humidity 59    
Precipitation  
Precipitation 0.03 in 0.12 in 0.48 in (2003)
Month to date precipitation 6.74 3.28  
Year to date precipitation 47.61 47.29  
Sea Level Pressure  
Sea Level Pressure 29.94 in    
Wind  
Wind Speed 9 mph (West)    
Max Wind Speed 16 mph    
Max Gust Speed 23 mph    
Visibility 7 miles    
Events Rain    
T = Trace of Precipitation, MM = Missing Value Source: NWS Daily Summary

Daily Weather History Graph

Daily Weather History Graph

Search for Another Location

Airport or City:

Astronomy

Dec. 29, 2013 Rise Set
Actual Time 8:05 AM EST 5:32 PM EST
Civil Twilight 7:35 AM EST 6:02 PM EST
Nautical Twilight 7:01 AM EST 6:35 PM EST
Astronomical Twilight 6:29 AM EST 7:08 PM EST
Moon 4:49 AM EST (12/29) 3:09 PM EST (12/29)
Length of Visible Light 10h 26m
Length of Day
9h 26m
Waning Crescent, 11% of the Moon is Illuminated
Dec 29
Waning Crescent
Jan 1
New
Jan 7
First Quarter
Jan 15
Full
Jan 24
Last Quarter

Hourly Weather History & Observations

Time (EST) Temp. Windchill Dew Point Humidity Pressure Visibility Wind Dir Wind Speed Gust Speed Precip Events Conditions
12:53 AM 39.9 °F 36.7 °F 27.0 °F 60% 29.96 in 10.0 mi SSE 4.6 mph - N/A   Partly Cloudy
1:53 AM 39.9 °F 37.8 °F 27.0 °F 60% 29.93 in 10.0 mi SSE 3.5 mph - N/A   Overcast
2:53 AM 41.0 °F 35.2 °F 28.0 °F 60% 29.94 in 10.0 mi South 9.2 mph - N/A   Overcast
3:53 AM 39.9 °F 36.7 °F 30.9 °F 70% 29.92 in 10.0 mi WSW 4.6 mph - 0.00 in Rain Light Rain
4:53 AM 37.9 °F 34.4 °F 34.0 °F 86% 29.90 in 7.0 mi SSW 4.6 mph - 0.02 in Rain Light Rain
5:53 AM 37.9 °F 31.5 °F 35.1 °F 89% 29.89 in 9.0 mi SW 9.2 mph - 0.01 in   Overcast
6:53 AM 37.9 °F 33.5 °F 35.1 °F 89% 29.87 in 9.0 mi WSW 5.8 mph - N/A   Overcast
7:53 AM 37.9 °F 33.5 °F 35.1 °F 89% 29.88 in 8.0 mi SW 5.8 mph - N/A   Overcast
8:53 AM 37.9 °F 35.5 °F 35.1 °F 89% 29.87 in 8.0 mi SSW 3.5 mph - N/A   Overcast
9:53 AM 39.0 °F 31.8 °F 35.1 °F 86% 29.89 in 8.0 mi WSW 11.5 mph - 0.00 in Rain Light Rain
10:53 AM 39.9 °F 33.9 °F 36.0 °F 86% 29.89 in 9.0 mi WSW 9.2 mph - 0.00 in   Mostly Cloudy
11:53 AM 44.1 °F 37.7 °F 35.1 °F 71% 29.87 in 10.0 mi West 12.7 mph - N/A   Mostly Cloudy
12:50 PM 42.8 °F 36.2 °F 35.6 °F 76% 29.85 in 10.0 mi West 12.7 mph - N/A   Mostly Cloudy
12:53 PM 43.0 °F 36.8 °F 35.1 °F 74% 29.86 in 10.0 mi West 11.5 mph 19.6 mph N/A   Mostly Cloudy
1:53 PM 41.0 °F 33.1 °F 32.0 °F 70% 29.87 in 10.0 mi WNW 15.0 mph 21.9 mph N/A   Overcast
2:46 PM 37.0 °F 29.3 °F 30.0 °F 76% 29.88 in 7.0 mi WNW 11.5 mph 20.7 mph N/A   Overcast
2:53 PM 36.0 °F 29.0 °F 30.0 °F 79% 29.90 in 6.0 mi WNW 9.2 mph 18.4 mph N/A   Haze
3:25 PM 35.1 °F 25.5 °F 30.9 °F 85% 29.90 in 4.0 mi West 15.0 mph 23.0 mph N/A   Overcast
3:53 PM 34.0 °F 25.0 °F 30.0 °F 85% 29.92 in 4.0 mi WNW 12.7 mph 17.3 mph N/A   Overcast
4:05 PM 33.1 °F 23.0 °F 30.0 °F 89% 29.92 in 2.5 mi West 15.0 mph 20.7 mph N/A   Overcast
4:40 PM 32.0 °F 24.8 °F 28.9 °F 88% 29.95 in 2.5 mi WNW 8.1 mph 16.1 mph 0.00 in Rain Light Freezing Rain
4:50 PM 30.2 °F 20.8 °F 28.4 °F 93% 29.95 in 2.5 mi WNW 11.5 mph - 0.00 in   Overcast
4:53 PM 30.9 °F 22.2 °F 28.0 °F 89% 29.98 in 2.0 mi WNW 10.4 mph - 0.00 in   Overcast
5:37 PM 30.0 °F 21.1 °F 27.0 °F 88% 29.98 in 3.0 mi West 10.4 mph - N/A   Overcast
5:53 PM 30.0 °F 20.5 °F 28.0 °F 92% 30.01 in 3.0 mi West 11.5 mph - N/A   Overcast
6:53 PM 30.0 °F 19.5 °F 27.0 °F 88% 30.03 in 4.0 mi West 13.8 mph 20.7 mph N/A   Overcast
7:53 PM 30.0 °F 21.1 °F 27.0 °F 88% 30.06 in 4.0 mi WNW 10.4 mph - N/A   Overcast
8:53 PM 30.0 °F 21.7 °F 27.0 °F 88% 30.08 in 5.0 mi WNW 9.2 mph - N/A   Overcast
9:53 PM 28.9 °F 20.4 °F 26.1 °F 89% 30.09 in 10.0 mi WNW 9.2 mph - N/A   Overcast
10:53 PM 28.0 °F 20.0 °F 26.1 °F 92% 30.10 in 5.0 mi WNW 8.1 mph 17.3 mph N/A   Overcast
11:53 PM 27.0 °F 16.1 °F 24.1 °F 89% 30.12 in 10.0 mi WNW 12.7 mph - N/A   Overcast